Location: Asheville, NC
(35.6000°N, 82.5500°W)
Time: 17:12:47
(UTC-04:00)

AO-85 - Pass Details

Date: 18 March 2018
Orbit: 497 x 788 km, 64.8° (Epoch: 14 June)

Event Time Altitude Azimuth Distance (km) Brightness Sun altitude
Rises 05:50:13 0° 348° (NNW) 3,125 ? -22.2°
Reaches altitude 10° 05:53:37 10° 12° (NNE) 2,254 ? -21.6°
Maximum altitude 05:56:31 15° 46° (NE) 1,971 ? -21.0°
Drops below altitude 10° 05:59:29 10° 80° (E) 2,316 ? -20.4°
Sets 06:03:02 0° 103° (ESE) 3,263 ? -19.7°
